Weather observations for the past three days for
Jamestown, Chautauqua County/Jamestown Airport
Imperial (Metric)
Date Time (edt) Wind (mph) Vis. (mi.) Weather Sky Cond. Temperature (ºF) Relative Humidity Wind Chill (°F) Heat Index (°F) Pressure Precipitation (in)
Air Dwpt 6 hour altimeter (in) sea level (mb) 1 hr 3 hr 6 hr
Max. Min.
22 18:56 N 7 10.00 Light Rain FEW070 OVC110 72 64.9 79% 30.02 1016.4
22 17:56 N 8 10.00 A Few Clouds FEW110 73.9 66 76% 30.02 1016.1
22 16:56 N 5 10.00 Mostly Cloudy BKN110 75 66 74% 76 30.02 1016.3
22 15:56 N 6 10.00 Fair CLR 77 64 64% 79 30.03 1016.3
22 14:56 W 3 10.00 Fair CLR 77 60.1 56% 79 30.04 1016.7
22 13:56 NW 6 10.00 Fair CLR 78.1 59 79 63 52% 79 30.05 1017.0
22 12:56 Vrbl 3 10.00 Fair CLR 78.1 60.1 54% 79 30.06 1017.2
22 11:56 E 5 10.00 Fair CLR 77 60.1 56% 79 30.08 1017.9
22 10:56 N 5 10.00 Fair CLR 73.9 61 64% 30.09 1018.3
22 09:56 Calm 10.00 Fair CLR 69.1 63 81% 30.09 1018.5
22 08:56 Calm 10.00 Fair CLR 66 63 90% 30.1 1018.8
22 07:56 Calm 10.00 Fair CLR 63 63 64.9 60.1 100% 30.09 1018.7
22 06:56 Calm 9.00 Fair CLR 61 61 100% 30.09 1018.8
22 05:56 Calm 1.50 Fog/Mist FEW002 60.1 60.1 100% 30.09 1018.5
22 04:56 Calm 0.50 Fog VV002 60.1 60.1 100% 30.1 1018.9
22 03:56 Calm 8.00 Fair CLR 61 61 100% 30.11 1019.2
22 02:56 S 5 9.00 Fair CLR 61 61 100% 30.13 1019.7
22 01:56 Calm 10.00 Fair CLR 64.9 61 73 63 87% 30.13 1019.9
22 00:56 Calm 10.00 Fair CLR 64.9 62.1 90% 30.14 1020.2
21 23:56 Calm 10.00 Fair CLR 64 62.1 93% 30.14 1020.3
21 22:56 Calm 10.00 Fair CLR 66 63 90% 30.14 1020.1
21 21:56 N 5 10.00 Fair CLR 68 63 84% 30.14 1020.1
21 20:56 N 6 10.00 Fair CLR 70 63 79% 30.13 1019.9
21 19:56 N 6 10.00 Fair CLR 73 64 78.1 73 74% 30.12 1019.7
21 18:56 N 5 10.00 Fair CLR 73.9 64 71% 30.12 1019.7
21 17:56 N 6 10.00 Fair CLR 75 62.1 64% 77 30.11 1019.5
21 16:56 Calm 10.00 Fair CLR 75.9 59 56% 78 30.13 1019.9
21 15:56 Calm 10.00 Fair CLR 75.9 54 47% 78 30.14 1020.3
21 14:56 Vrbl 6 10.00 Fair CLR 75.9 55.9 50% 78 30.14 1020.4
21 13:56 N 7 10.00 Fair CLR 75.9 55 75.9 57.9 48% 78 30.14 1020.2
21 12:56 Calm 10.00 Fair CLR 73.9 55 52% 30.14 1020.5
21 11:56 W 6 10.00 Fair CLR 73 57.9 59% 30.15 1020.6
21 10:56 NW 3 10.00 Mostly Cloudy BKN034 BKN041 71.1 57.9 63% 30.15 1020.7
21 09:56 Calm 10.00 Fair CLR 68 64 87% 30.15 1020.8
21 08:56 Calm 10.00 Fair CLR 64 64 100% 30.15 1020.8
21 07:56 S 3 10.00 A Few Clouds FEW003 57.9 57.9 59 53.1 100% 30.15 1020.8
21 06:56 S 3 10.00 A Few Clouds FEW005 55 55 100% 30.14 1020.6
21 05:56 S 3 0.75 Fog/Mist CLR 55 55 100% 30.13 1020.2
21 04:56 Calm 6.00 Fog/Mist CLR 55 55 100% 30.12 1019.7
21 03:56 Calm 10.00 Fair CLR 57 57 100% 30.11 1019.5
21 02:56 Calm 10.00 Fair CLR 57 57 100% 30.12 1019.8
21 01:56 S 3 10.00 Fair CLR 55.9 55.9 70 55.9 100% 30.13 1020.0
21 00:56 Calm 10.00 Fair CLR 57 57 100% 30.13 1020.0
20 23:56 NW 3 10.00 Fair CLR 61 57.9 90% 30.12 1019.7
20 22:56 N 8 10.00 Fair CLR 63 57.9 84% 30.13 1020.1
20 21:56 NW 6 10.00 Fair CLR 63 57.9 84% 30.13 1020.2
20 20:56 N 7 10.00 Fair CLR 66 55.9 70% 30.13 1020.0
20 19:56 N 6 10.00 Fair CLR 70 55 75.9 70 59% 30.11 1019.4
20 18:56 N 8 10.00 Fair CLR 73 48 41% 30.11 1019.6
20 17:56 N 10 10.00 Fair CLR 73.9 48 40% 30.11 1019.6
20 16:56 N 12 10.00 Fair CLR 73.9 53.1 48% 30.12 1019.7
20 15:56 N 8 10.00 Fair CLR 75.9 52 43% 78 30.12 1019.8
20 14:56 NW 8 10.00 Fair CLR 75 52 45% 78 30.13 1020.2
20 13:56 NW 5 10.00 Fair CLR 75 55.9 75 61 52% 78 30.13 1020.2
20 12:56 NW 3 10.00 Fair CLR 73.9 54 50% 30.15 1020.6
20 11:56 NE 6 10.00 Fair CLR 72 54 53% 30.15 1020.9
20 10:56 N 7 10.00 Fair CLR 70 57 64% 30.15 1020.8
20 09:56 Calm 10.00 Fair CLR 70 55.9 61% 30.15 1020.8
20 08:56 Calm 10.00 Fair CLR 63 57 81% 30.16 1021.3
20 07:56 Calm 10.00 Fair CLR 61 57.9 62.1 52 90% 30.16 1021.2
20 06:56 Calm 10.00 Fair CLR 55 54 96% 30.15 1021.1
20 05:56 Calm 10.00 Fair CLR 54 53.1 97% 30.15 1021.0
20 04:56 Calm 10.00 Fair CLR 57 52 83% 30.15 1020.9
20 03:56 Calm 10.00 Fair CLR 55 55 100% 30.15 1020.9
20 02:56 S 6 10.00 Fair CLR 53.1 53.1 100% 30.16 1021.5
20 01:56 Calm 10.00 Fair CLR 57 53.1 66.9 55.9 87% 30.18 1021.9
20 00:56 Calm 10.00 Fair CLR 59 53.1 81% 30.18 1022.1
19 23:56 Calm 10.00 Fair CLR 59 54 83% 30.2 1022.6
19 22:56 Calm 10.00 Fair CLR 59 54 83% 30.19 1022.1
19 21:56 Calm 10.00 Fair CLR 62.1 53.1 73% 30.19 1022.4
19 20:56 N 6 10.00 Fair CLR 64 54 70% 30.18 1021.9
19 19:56 N 8 10.00 Fair CLR 66.9 55.9 73 66.9 68% 30.17 1021.8
Date Time (edt) Wind (mph) Vis. (mi.) Weather Sky Cond. Air Dwpt Max. Min. Relative Humidity Wind Chill (°F) Heat Index (°F) altimeter (in) sea level (mb) 1 hr 3 hr 6 hr
6 hour
Temperature (ºF) Pressure Precipitation (in)